GEFSNGP_500_meanwind_006.txt.gz
Wind_Speed
29 29 31 33 31 30 31 33 34 28 26 24 24 26 26 27 28 28 27 24 21 20 20 21 23 26 28 28 29 28 27 26 24 23 21 20 20 19 19 18 19 21 20 22
23 25 29 30 28 30 31 33 34 34 31 27 30 30 29 27 28 27 26 23 20 17 18 19 23 26 28 29 29 28 27 26 26 26 26 24 23 21 20 19 19 19 19 19
18 20 26 25 23 28 31 32 35 38 35 33 34 33 30 28 27 25 24 23 20 19 19 21 24 27 28 29 28 27 26 26 27 28 29 27 25 24 23 22 21 19 18 19
20 22 24 23 27 30 33 33 35 37 34 32 32 31 29 27 24 21 21 20 20 22 25 27 28 28 27 26 25 25 25 27 28 29 29 28 27 27 27 25 22 20 20 19
20 21 22 23 24 23 20 19 17 16 14 14 16 18 18 17 17 18 18 20 24 27 28 29 29 28 25 24 24 24 24 24 25 27 27 27 27 29 29 27 25 23 22 22
19 20 17 10 7 4 2 1 2 3 2 0 3 6 8 12 15 17 20 23 24 26 27 27 25 24 23 23 23 22 23 23 25 27 28 28 30 31 31 29 27 26 24 24
19 17 8 7 4 5 8 6 7 8 7 4 2 5 9 13 17 19 19 20 21 23 23 22 22 22 22 22 23 24 25 26 28 30 30 31 32 32 31 30 28 25 24 24
20 12 13 13 8 6 5 5 5 3 3 4 6 8 11 15 17 17 18 17 18 18 19 19 20 20 21 22 23 24 25 26 27 29 30 31 32 32 32 30 27 26 25 25
20 15 20 16 11 7 4 1 3 4 4 5 6 9 12 14 16 17 16 15 16 17 18 19 20 21 21 21 21 22 23 24 26 28 29 30 30 30 30 28 25 25 25 26
21 22 23 18 13 6 1 4 6 6 6 7 7 9 11 13 15 15 14 15 16 17 18 19 20 20 19 18 18 20 20 20 20 21 23 25 26 26 26 24 23 24 24 25
23 26 24 21 17 11 4 2 6 8 9 9 10 10 12 13 14 14 14 14 15 16 17 18 19 19 18 17 16 17 16 14 14 15 14 13 14 16 18 20 21 21 21 21
27 27 25 21 17 12 8 4 6 9 10 10 11 11 12 13 13 12 12 12 13 13 14 17 18 17 16 14 13 14 13 12 12 13 10 4 2 8 13 16 17 18 18 19
30 31 28 24 18 14 10 7 7 9 9 9 10 11 11 11 11 10 10 10 11 12 15 17 17 15 13 11 11 11 11 10 10 10 10 7 5 6 9 11 13 14 15 16
32 31 29 27 23 16 12 10 9 9 9 9 10 10 10 10 10 9 9 9 11 13 15 16 16 14 13 11 10 9 9 9 8 8 8 7 6 5 6 7 10 11 12 14
33 33 31 27 21 15 13 13 11 10 8 9 10 10 9 9 9 8 9 10 11 12 13 14 15 15 13 10 9 8 8 8 8 8 8 7 7 6 4 4 6 8 9 11
37 35 31 27 21 17 16 16 14 11 8 8 9 9 8 7 7 8 8 9 10 11 11 12 13 15 13 10 8 7 7 7 7 7 7 7 6 6 5 3 1 2 4 6
38 34 30 26 23 21 20 18 14 11 9 8 8 6 6 5 6 7 8 9 9 9 9 9 12 13 12 10 8 6 6 6 6 6 6 6 6 7 7 6 5 3 1 1
35 32 28 25 23 21 19 17 14 12 10 9 7 4 3 4 5 7 8 8 8 7 7 8 9 10 10 9 9 8 6 5 5 5 5 6 6 6 7 7 6 4 3 2
35 31 28 25 23 20 18 17 16 14 12 10 7 3 1 2 4 6 7 7 7 6 7 8 8 8 9 9 9 9 7 7 6 6 6 6 6 6 7 7 6 5 4 4
36 33 30 27 23 20 20 20 19 16 13 11 8 5 3 2 3 6 8 8 8 8 8 8 8 8 9 10 10 10 10 9 9 8 8 7 7 7 7 8 7 6 5 5
37 34 31 27 25 23 24 23 21 18 15 12 10 8 7 5 4 6 8 9 9 9 9 8 9 10 10 11 12 12 12 12 12 11 10 10 9 9 9 9 9 9 9 8
38 34 31 28 25 24 25 25 23 20 16 14 13 12 10 8 4 3 7 9 9 9 9 9 9 10 11 12 13 14 14 14 14 13 13 12 12 12 12 12 12 12 11 11
38 35 32 29 27 26 28 27 25 21 18 17 16 15 13 10 5 0 4 7 8 8 8 8 9 9 10 11 12 13 14 14 15 15 15 15 15 15 15 14 14 13 13 13
40 37 34 31 29 29 29 28 26 22 19 18 18 18 15 11 7 3 3 4 5 6 6 7 8 9 9 10 11 12 13 14 15 16 16 17 17 17 17 17 16 16 15 15
39 40 38 34 32 31 31 29 26 23 20 19 20 19 17 13 9 6 5 3 2 3 5 6 7 9 9 10 11 12 12 13 13 15 15 16 16 17 17 18 18 18 17 17
37 41 41 38 34 33 33 31 28 24 22 21 21 20 17 13 10 9 7 5 2 1 3 5 6 8 9 10 11 11 11 11 12 14 15 16 16 17 17 18 18 18 18 18
35 39 42 40 37 35 35 33 30 26 23 22 21 19 16 13 11 10 9 8 7 5 4 4 5 6 7 8 9 10 10 11 12 12 14 15 15 16 17 18 18 18 19 19

GEFSNGP_500_meanwind_012.txt.gz
Wind_Speed
25 21 21 22 25 28 30 32 35 34 33 30 29 30 31 31 29 26 25 25 25 25 25 25 24 21 19 19 19 20 21 21 22 22 22 23 23 22 21 21 20 20 20 21
25 23 22 22 22 26 30 32 33 33 30 27 28 30 31 31 30 27 26 26 26 27 26 25 23 22 22 23 24 25 26 25 24 23 23 23 23 23 22 22 22 21 21 21
22 20 20 18 20 22 23 24 27 28 26 25 26 28 29 29 30 30 28 28 28 26 25 23 22 23 25 27 27 27 27 27 25 24 24 24 24 24 24 24 24 24 23 22
21 19 17 16 17 16 16 18 20 21 22 21 21 21 22 24 25 26 26 25 23 22 21 21 23 25 27 27 27 27 26 25 25 24 24 25 25 25 25 25 25 25 25 23
19 16 15 15 13 13 13 12 11 11 11 9 6 6 8 10 13 14 15 15 16 17 19 21 23 24 25 26 26 25 25 25 25 24 24 24 24 25 25 24 24 25 25 24
17 15 14 14 12 11 9 7 6 5 4 3 4 3 3 3 5 6 8 10 13 15 18 20 21 22 23 23 24 25 25 25 26 25 25 25 26 27 27 27 27 25 25 24
17 16 16 15 13 11 11 10 9 8 7 6 6 5 4 3 3 5 7 10 13 15 17 18 19 21 22 23 24 24 25 25 25 26 26 27 28 28 29 29 30 29 28 27
18 19 20 19 17 15 14 14 12 10 8 7 6 5 3 2 4 6 9 11 13 15 16 18 19 21 22 23 23 23 23 22 23 23 24 26 27 28 29 30 30 30 29 28
21 22 22 22 20 17 17 16 13 11 9 7 5 3 1 2 5 8 11 13 14 15 16 18 18 19 21 21 21 20 19 19 19 20 21 23 25 27 28 28 28 28 28 28
26 26 26 25 23 21 19 17 14 11 9 7 6 4 3 4 7 10 13 13 14 15 16 16 18 19 20 19 18 16 16 16 16 17 18 20 21 22 23 24 24 24 25 26
29 28 28 26 25 23 21 18 15 12 9 8 6 5 5 5 7 11 13 13 13 14 15 16 18 19 19 17 14 14 14 14 14 15 17 17 17 15 13 15 17 17 18 19
31 30 28 27 27 26 24 19 15 12 10 8 7 6 7 7 9 11 12 13 13 14 15 17 18 18 17 15 13 13 13 13 14 14 15 15 16 12 6 4 8 9 11 13
32 30 28 27 28 28 26 21 16 12 10 8 8 8 8 8 9 10 12 13 13 14 15 16 17 17 16 15 14 13 12 12 13 14 15 15 15 13 9 4 2 5 7 10
32 30 28 29 30 30 27 22 17 13 10 9 9 9 9 9 9 10 11 12 13 13 14 15 16 16 15 14 13 12 11 11 12 13 14 14 14 12 10 6 2 2 4 7
29 29 29 30 31 31 28 24 18 14 11 11 10 9 8 8 9 10 11 12 12 13 13 14 14 14 14 13 12 11 10 10 11 11 12 13 13 12 10 7 4 1 2 4
25 27 29 31 33 32 30 25 20 16 13 13 11 9 7 8 9 10 11 11 11 12 12 12 12 13 12 12 11 11 10 10 10 11 11 11 11 11 10 8 5 3 1 2
21 25 28 31 33 32 29 25 21 17 16 15 12 8 7 7 8 10 10 11 11 11 10 10 11 11 11 11 11 10 10 10 10 10 10 10 10 10 9 8 6 4 3 1
18 23 27 30 32 31 29 26 22 19 18 16 13 8 6 6 8 9 9 10 10 10 9 9 10 10 11 10 9 9 9 10 10 9 9 9 9 8 8 7 6 5 4 3
17 22 26 29 31 32 30 27 23 20 20 18 13 8 5 5 7 7 8 9 9 9 8 9 9 10 10 10 9 9 10 10 10 9 9 9 8 8 8 8 7 6 5 5
17 21 25 28 31 32 30 25 22 21 21 18 13 9 5 4 5 6 7 8 8 8 7 8 8 8 9 10 10 11 11 11 11 10 10 10 10 10 10 10 9 9 9 8
19 20 24 29 32 32 29 25 22 22 22 18 14 10 7 5 5 4 5 6 7 7 6 7 7 8 9 10 11 12 12 12 13 13 13 12 12 12 12 12 12 12 12 11
20 20 24 30 33 32 28 25 24 24 22 19 15 12 10 8 6 3 3 5 6 6 5 6 6 7 9 10 12 13 13 14 15 15 15 15 15 15 15 15 15 15 14 14
22 21 24 31 34 33 30 27 24 24 22 19 16 15 13 11 8 4 2 3 4 5 5 5 5 6 8 9 11 12 14 15 16 16 17 17 17 18 18 18 18 18 17 17
24 23 25 31 35 35 31 28 25 24 23 21 19 17 16 14 11 7 4 2 3 3 4 4 4 5 7 8 10 11 13 15 16 16 17 17 17 18 18 18 18 18 18 18
26 25 26 31 35 36 33 30 27 26 24 23 21 20 19 17 14 10 6 4 2 1 2 3 4 5 6 8 9 11 12 14 15 15 16 17 17 17 18 18 18 18 18 19
30 28 28 31 35 36 34 32 29 27 26 25 23 22 21 19 16 13 9 7 4 2 1 3 4 5 6 8 9 10 11 12 13 14 14 15 16 16 17 18 18 18 18 18
33 32 31 33 36 37 36 33 31 29 28 26 25 23 22 21 19 15 12 9 7 6 4 4 5 6 6 7 7 8 9 10 10 11 11 12 13 14 15 16 17 17 18 17

GEFSNGP_500_meanwind_018.txt.gz
Wind_Speed
26 24 23 23 23 23 24 25 27 26 26 26 27 28 29 29 31 30 29 29 28 27 25 23 22 22 23 23 23 22 22 23 23 23 23 23 23 24 24 24 24 23 23 22
24 22 20 19 19 20 19 20 22 23 24 26 27 28 28 29 30 30 29 28 27 26 25 24 23 23 24 24 23 23 24 24 25 24 23 23 23 24 24 25 25 25 25 24
19 19 16 15 16 16 17 17 19 19 20 22 24 24 24 24 25 26 26 25 24 24 23 23 23 23 23 23 22 23 23 24 24 23 23 23 23 23 24 24 25 25 26 26
14 15 14 14 14 14 15 15 15 15 16 17 17 18 17 17 17 17 19 19 20 20 20 21 21 22 22 22 22 23 23 23 23 22 23 23 23 23 23 24 24 25 26 26
9 13 14 16 15 14 13 13 12 12 12 11 11 12 11 9 8 9 10 12 13 14 15 17 17 18 20 21 22 22 22 22 22 23 23 23 23 23 23 23 23 24 25 26
11 12 15 17 16 15 13 13 12 11 11 10 8 7 6 4 3 4 5 6 8 10 13 15 16 18 19 20 21 21 22 22 22 23 23 23 23 24 24 24 24 25 25 25
15 14 16 17 18 17 17 16 14 13 11 9 6 5 3 2 2 3 5 7 9 11 12 14 16 17 18 19 19 20 21 21 21 21 21 21 21 22 23 24 25 26 27 27
17 17 17 18 19 21 19 17 15 14 11 7 5 3 3 3 3 4 6 8 10 11 12 13 14 15 16 16 18 18 19 19 18 18 18 18 19 20 22 24 26 27 28 29
17 18 18 19 22 22 19 18 16 13 10 7 5 3 3 3 5 6 7 10 11 11 11 11 12 13 14 16 16 16 16 16 15 15 15 16 18 19 21 23 25 27 28 29
17 19 19 18 21 21 20 19 17 13 10 7 5 4 4 5 6 7 9 11 11 11 11 11 12 13 14 15 15 14 14 13 12 13 14 15 16 17 19 21 22 23 25 26
17 19 17 18 19 19 18 18 16 12 10 8 5 4 5 5 6 8 10 11 11 11 11 11 12 13 14 14 13 12 11 10 11 12 13 14 15 16 16 16 15 16 17 20
14 18 18 17 18 17 19 18 15 12 10 7 5 4 4 5 6 8 9 11 11 12 12 11 12 12 12 12 11 10 9 10 11 11 12 13 14 14 14 14 10 7 7 10
10 15 18 17 18 17 18 17 15 12 10 7 5 4 4 4 6 8 9 10 12 12 12 12 12 11 11 11 10 9 9 10 11 11 12 12 13 13 13 12 10 6 2 3
6 11 15 17 16 17 15 17 15 13 11 8 5 4 3 4 6 8 9 11 12 12 13 12 11 10 10 9 9 9 9 10 11 11 11 12 12 12 12 11 10 7 4 2
5 9 13 16 16 16 16 15 16 14 12 9 6 4 4 5 6 8 10 11 12 12 12 11 11 10 10 9 9 9 10 10 10 11 11 11 11 11 11 10 9 7 5 3
5 7 12 15 15 16 17 17 17 16 14 11 8 6 5 5 7 8 10 11 12 12 12 11 10 10 10 10 9 9 10 10 10 9 9 9 9 10 10 9 8 7 6 5
6 7 12 15 16 17 18 18 19 18 16 13 10 7 5 5 6 8 9 10 10 11 10 10 10 10 10 10 10 10 10 10 9 9 9 9 9 9 9 9 9 8 7 6
7 9 12 15 17 17 18 19 20 20 18 16 12 9 6 4 5 7 8 9 9 10 9 9 9 10 10 11 11 11 10 10 10 10 10 10 10 10 10 10 9 9 8 7
10 11 13 15 17 18 18 19 21 21 20 17 14 11 7 4 4 6 7 7 8 8 7 8 9 10 11 11 11 11 11 11 11 12 12 12 12 12 12 12 12 11 10 10
12 12 15 16 17 19 19 20 22 22 21 18 16 12 9 5 3 4 5 6 6 6 6 7 8 9 11 12 12 11 11 11 12 12 12 13 13 13 13 14 13 13 12 12
15 13 15 18 19 20 21 22 22 23 22 20 17 14 11 7 4 3 3 4 4 4 5 5 6 8 9 10 11 11 11 12 12 12 13 13 14 14 14 15 15 15 14 14
19 14 15 19 20 21 22 24 25 25 24 22 19 16 13 10 7 5 3 2 2 3 3 4 5 6 8 8 9 10 11 12 12 13 13 14 15 16 16 16 16 17 17 17
22 17 15 19 21 22 23 25 26 26 25 23 20 18 15 12 10 8 5 2 1 1 2 2 3 4 6 7 8 9 10 11 12 13 14 14 15 16 16 17 17 18 18 18
24 20 16 18 21 23 24 26 28 28 27 25 22 19 17 15 13 11 8 5 2 1 1 1 2 3 4 6 7 8 10 11 12 13 14 14 14 15 16 16 16 17 17 17
25 23 19 18 21 23 26 28 30 31 29 26 23 21 20 18 16 14 11 8 5 3 3 2 2 3 4 5 7 8 10 11 11 12 13 13 14 15 15 15 15 15 15 15
26 25 22 20 22 25 27 30 33 34 32 28 25 24 23 21 19 17 14 10 8 6 5 5 4 5 5 6 7 7 8 8 9 9 10 11 12 13 13 14 14 14 13 13
28 28 25 22 22 26 28 31 35 36 35 31 28 26 25 24 22 20 17 13 10 8 7 7 7 7 7 7 7 7 6 6 6 7 7 8 9 10 11 11 11 12 12 12

GEFSNGP_500_meanwind_024.txt.gz
Wind_Speed
20 16 15 15 15 15 18 21 21 21 22 22 21 19 16 15 15 17 19 21 23 24 25 24 24 25 25 24 24 24 24 24 24 24 23 23 23 23 23 23 23 23 23 22
14 9 9 10 12 12 14 15 16 15 13 12 12 11 11 12 14 15 17 19 20 22 23 23 23 22 23 22 23 24 24 24 24 24 23 23 23 24 23 23 24 24 24 23
10 2 5 7 9 8 8 10 9 8 5 4 6 7 7 8 9 10 11 13 14 17 19 20 20 20 21 22 22 23 24 24 24 24 24 24 24 24 24 24 24 24 24 24
6 1 3 6 6 7 7 6 6 5 3 3 4 4 5 5 5 4 4 5 7 10 13 14 15 16 17 18 19 21 22 22 23 23 24 24 24 24 25 24 24 24 24 24
5 3 5 8 7 8 8 6 4 4 3 3 2 3 3 4 4 4 3 2 2 4 6 9 11 13 15 16 17 19 21 22 22 23 23 24 24 24 25 24 24 24 24 25
7 6 7 7 6 7 8 7 6 4 3 3 2 2 3 3 3 4 4 3 3 4 6 8 10 12 14 16 17 19 20 21 21 22 22 23 23 23 23 23 23 24 24 25
8 6 6 5 4 6 7 6 8 5 4 3 2 1 2 3 4 4 4 5 6 7 9 11 12 13 15 16 17 19 19 20 21 21 21 21 21 21 21 22 23 23 24 25
8 5 4 5 4 5 6 6 7 5 4 2 1 2 3 3 4 5 6 7 8 10 11 12 13 14 15 17 17 18 19 20 20 20 19 18 18 19 20 21 21 22 24 25
8 5 3 3 3 3 4 4 5 5 3 2 1 2 3 3 4 5 7 8 10 11 12 13 14 15 16 17 18 18 18 18 18 17 17 17 17 18 19 19 21 22 23 25
9 6 4 2 3 4 3 2 2 4 3 2 3 3 3 4 6 7 8 10 12 13 14 15 15 16 16 17 17 17 17 17 16 16 16 16 16 17 17 18 19 20 20 21
10 7 5 3 3 4 4 3 3 4 2 2 3 2 3 5 7 8 10 12 13 15 15 15 16 16 17 17 17 17 16 16 15 16 16 16 16 16 16 17 17 18 18 18
10 7 5 2 1 3 3 3 3 4 2 2 1 1 4 6 8 10 11 13 14 16 16 16 16 16 16 16 16 16 16 16 16 16 15 15 15 15 15 16 16 16 15 14
10 6 4 3 2 4 4 4 3 4 4 3 2 1 4 6 8 10 12 14 15 16 16 16 16 16 16 16 16 16 16 16 16 15 15 14 14 14 14 13 14 14 13 10
13 6 3 3 3 3 3 3 4 5 5 4 3 2 4 6 8 10 12 14 15 16 16 16 16 16 16 16 16 16 16 15 15 14 13 13 12 12 12 12 11 11 11 9
16 9 4 4 5 6 5 5 4 5 6 6 5 4 4 6 8 10 12 14 15 15 16 16 16 16 16 17 16 16 15 14 13 12 11 11 11 11 11 10 10 10 10 9
20 14 8 5 6 7 8 7 6 6 7 7 7 6 5 6 8 10 12 13 14 15 15 16 16 16 16 16 16 15 14 13 12 11 11 11 10 10 10 10 10 10 10 9
23 18 13 7 7 8 9 9 9 9 9 9 9 8 7 6 8 9 11 12 13 14 14 15 15 16 16 16 15 14 14 13 13 12 12 11 11 11 11 11 11 11 11 10
25 22 17 12 8 9 11 12 11 11 11 12 12 10 9 8 8 9 10 11 12 13 13 13 14 15 15 15 14 14 13 14 14 14 14 14 14 14 13 13 13 13 13 13
26 25 22 17 12 10 11 13 14 13 13 14 14 12 11 9 9 8 9 9 10 11 11 12 13 14 14 14 14 14 14 14 14 15 15 15 15 15 15 15 15 15 15 15
25 26 25 22 18 13 11 13 15 16 15 15 16 15 12 11 10 9 8 8 9 9 10 10 11 12 12 13 13 13 13 13 13 13 13 13 14 14 14 14 15 15 15 15
23 25 25 24 22 18 14 13 15 17 17 17 18 17 15 13 12 10 9 7 7 7 7 8 9 10 10 11 11 11 11 12 12 12 12 12 12 13 13 14 15 15 15 16
22 24 25 26 24 22 18 14 14 16 18 19 19 18 17 15 13 12 10 8 6 6 6 6 7 7 8 8 9 9 9 10 10 10 10 10 11 12 12 13 14 14 15 15
22 23 24 26 25 24 21 17 15 16 18 20 21 20 19 18 16 14 12 9 7 5 5 5 5 6 6 6 6 6 6 7 8 8 9 9 9 10 11 11 12 13 13 14
21 22 23 25 26 25 24 21 17 16 18 21 22 22 21 20 18 16 15 12 9 7 5 5 4 5 5 5 4 3 4 5 6 7 7 8 8 9 10 10 10 11 12 13
22 22 23 24 25 26 25 23 20 17 18 20 23 24 24 23 21 19 18 15 12 9 7 6 5 5 4 4 3 2 1 2 4 5 6 6 7 8 9 9 10 10 11 12
24 23 24 24 25 26 26 25 23 20 18 20 23 25 26 26 24 22 21 19 16 13 10 8 7 6 6 5 5 4 2 1 1 2 3 5 5 6 7 8 9 10 11 11
26 25 25 26 26 26 26 26 25 23 20 20 22 26 28 28 27 25 24 22 20 17 14 11 10 9 8 7 7 6 5 4 3 3 3 4 4 5 6 7 8 9 10 11

GEFSNGP_500_meanwind_030.txt.gz
Wind_Speed
19 14 9 4 1 2 5 6 6 6 6 6 5 5 5 5 6 7 7 8 10 12 13 13 14 16 18 19 20 22 22 22 23 22 21 19 18 19 19 19 19 19 18 18
18 13 8 6 6 7 8 9 7 5 3 1 1 2 1 1 2 4 6 7 9 11 12 13 13 15 17 17 19 21 22 22 20 20 18 17 17 18 18 19 19 19 19 19
16 12 11 10 10 11 12 12 10 9 8 7 6 4 3 1 1 2 4 5 7 8 9 9 11 12 14 15 16 18 19 19 18 18 17 16 17 19 19 20 20 19 19 19
17 14 13 12 11 12 12 13 13 12 11 10 7 5 4 3 3 2 2 2 1 2 4 6 8 9 10 12 13 15 16 17 18 18 18 18 19 19 20 20 20 20 19 19
19 16 16 13 13 13 13 13 13 11 10 9 8 6 5 4 4 4 3 3 3 3 3 4 5 7 9 11 13 14 16 17 18 18 19 19 19 19 20 20 20 20 19 19
20 18 16 14 13 13 13 12 10 9 9 8 6 5 5 5 5 5 4 4 4 4 5 6 8 9 11 13 14 16 17 18 19 19 19 20 19 19 19 19 20 20 20 20
20 18 17 15 13 12 11 10 9 8 8 7 6 6 6 6 5 5 5 6 6 7 8 9 11 12 13 15 16 17 18 18 19 19 19 19 19 19 19 19 19 19 19 20
18 17 16 14 12 11 10 9 8 8 7 7 7 7 6 6 5 5 6 7 8 9 11 12 13 14 15 16 17 18 18 19 19 18 18 18 18 18 18 18 19 19 19 19
15 15 14 12 10 9 8 7 7 6 6 7 6 5 5 5 5 6 7 8 10 12 13 14 15 15 16 17 17 18 18 18 18 17 17 17 17 17 17 18 18 19 19 19
13 12 11 10 9 9 7 6 5 5 6 5 5 4 4 4 5 6 8 9 11 13 15 15 15 16 16 17 17 17 17 16 16 16 16 16 16 17 17 17 17 18 18 18
13 11 9 8 7 6 5 4 4 4 4 3 3 3 3 3 5 7 8 10 12 14 15 15 16 16 17 17 17 16 16 15 15 14 14 15 15 15 15 16 16 16 16 16
12 10 7 5 4 2 2 2 2 2 2 2 2 2 2 3 5 7 9 12 13 14 15 16 16 17 17 17 17 16 15 14 14 13 13 13 13 13 14 14 14 14 13 14
13 11 9 6 4 2 1 1 0 1 1 1 1 1 1 3 6 8 10 12 14 15 16 16 17 17 17 17 16 16 15 14 13 13 13 12 12 12 12 12 12 11 11 11
16 12 10 9 5 3 2 2 2 3 3 3 3 2 1 3 6 8 10 12 14 15 16 17 17 17 17 17 16 16 15 15 14 14 13 12 12 11 11 11 10 10 11 11
19 16 13 11 8 5 4 4 4 4 5 5 5 5 4 4 6 8 10 12 14 15 16 16 17 17 17 17 17 16 16 16 15 15 14 13 13 12 12 12 11 11 11 11
19 18 16 13 11 7 4 6 6 6 7 7 7 7 6 5 6 7 9 11 13 14 15 16 16 17 17 17 17 17 17 17 16 16 15 15 15 15 14 14 14 13 13 12
19 19 18 16 13 11 6 6 7 9 10 9 9 9 8 7 6 7 8 10 12 13 15 15 15 16 16 17 17 18 17 17 17 17 17 17 17 17 17 16 16 15 15 14
18 19 18 18 16 13 10 7 8 9 11 12 12 11 10 9 8 7 8 9 11 12 13 14 14 15 16 16 17 17 17 17 17 17 17 17 17 17 18 18 17 17 17 16
17 18 19 19 18 17 15 12 9 9 10 12 13 13 13 11 10 8 8 8 10 10 11 12 12 13 14 15 16 16 16 16 16 16 16 16 17 17 18 18 18 18 18 17
15 17 18 19 19 18 17 15 12 9 10 11 12 13 14 13 11 10 8 8 8 9 9 10 10 11 12 13 14 14 15 15 15 15 15 15 15 16 17 17 17 17 18 18
14 16 17 19 19 18 18 18 16 12 9 10 11 13 13 13 13 12 10 8 8 8 8 8 8 9 9 10 11 12 13 13 13 13 13 14 14 15 15 16 16 16 17 17
13 15 16 18 19 19 18 18 18 16 12 10 11 12 14 14 14 13 12 10 9 8 8 7 7 7 8 8 9 10 10 11 11 12 12 12 13 13 13 14 14 15 15 15
14 14 15 17 18 19 19 19 18 18 15 12 10 11 13 14 15 15 14 13 11 9 8 7 7 6 6 6 7 7 8 9 9 10 11 11 12 12 12 12 13 13 13 14
16 15 15 16 17 18 19 19 19 18 17 15 12 11 11 13 15 15 15 15 13 11 9 8 8 7 6 6 5 5 6 6 7 8 9 10 10 11 11 11 11 12 12 12
19 17 16 17 17 18 19 20 20 20 19 17 15 13 12 13 14 15 16 16 15 14 12 10 9 8 7 6 5 5 4 5 6 7 8 9 9 10 10 11 11 11 11 11
22 20 19 19 18 18 19 20 20 21 21 19 18 16 14 13 13 15 16 17 17 16 15 13 12 11 9 8 7 6 5 5 5 6 7 8 9 9 9 10 10 10 10 10
26 24 23 21 20 20 20 21 21 22 22 21 20 19 17 15 13 14 16 17 18 19 18 16 15 14 12 11 10 8 8 7 7 7 7 8 8 9 9 8 9 9 9 10

GEFSNGP_500_meanwind_036.txt.gz
Wind_Speed
24 23 21 19 15 13 10 11 10 8 8 6 5 5 5 7 8 7 5 4 4 3 3 3 4 5 8 11 13 14 16 18 20 20 19 19 18 18 19 19 20 20 20 21
24 23 21 19 18 16 15 14 13 11 10 9 10 9 8 9 10 9 9 7 6 4 2 1 3 6 8 10 12 13 16 18 18 17 17 16 16 15 16 17 17 18 19 20
23 21 20 19 17 15 14 14 13 11 11 11 11 11 10 10 11 11 10 10 8 7 5 4 4 5 6 8 10 12 13 14 14 15 15 15 15 15 15 17 18 19 20 20
22 20 19 18 17 15 15 14 13 12 12 12 11 11 11 11 11 12 12 12 11 9 8 7 7 7 7 9 10 11 12 13 14 15 15 16 15 15 16 17 18 18 19 19
21 19 18 17 16 15 13 13 12 11 11 11 11 11 10 11 11 11 11 11 11 10 9 9 9 9 10 10 11 12 14 15 16 16 16 16 16 16 17 17 18 18 19 19
19 18 16 15 14 13 12 11 11 10 10 10 11 10 10 10 10 11 11 10 10 10 10 10 11 11 11 12 13 14 15 16 16 16 16 16 16 17 17 17 18 18 19 19
17 16 15 14 13 12 10 9 9 9 9 9 9 9 9 9 9 10 10 10 11 11 11 12 12 13 13 14 14 15 15 16 16 16 16 16 16 17 17 17 18 18 18 18
15 15 14 12 11 11 9 8 7 7 7 7 7 8 8 8 9 9 10 10 11 12 13 13 14 15 16 16 16 17 17 16 16 15 15 16 16 16 16 16 16 16 16 17
16 15 14 11 10 9 8 7 6 5 5 5 5 6 7 8 9 10 11 12 13 14 14 15 16 17 18 18 18 18 18 17 16 16 15 15 14 14 14 14 14 14 14 14
16 15 14 12 10 8 7 6 5 4 4 4 4 4 6 7 9 10 12 13 14 15 16 17 18 19 19 19 19 19 18 18 17 16 15 14 14 13 13 12 12 12 12 12
16 16 14 12 9 8 7 6 5 3 3 3 3 4 5 7 9 11 12 14 15 16 16 17 18 19 19 19 19 19 18 18 17 16 15 14 13 13 12 11 11 11 11 10
18 17 16 13 10 8 6 5 4 4 4 4 3 3 5 6 8 10 12 13 15 16 17 18 18 19 19 19 19 18 18 18 17 16 15 14 14 13 12 12 12 11 11 10
18 18 17 15 12 8 7 6 5 5 5 4 4 4 4 5 7 9 11 13 14 16 16 17 18 18 18 18 18 18 18 18 18 17 17 16 15 15 14 14 13 13 12 11
19 18 18 17 14 10 8 7 6 5 5 4 4 4 3 4 6 8 10 12 13 15 16 16 17 18 18 18 18 18 18 18 18 18 18 18 17 17 16 15 15 15 14 13
19 19 19 18 16 12 9 8 7 6 5 5 4 4 4 4 5 6 8 10 11 13 14 15 16 17 17 17 18 18 18 18 18 18 18 18 18 18 18 17 17 17 16 16
17 18 19 19 18 14 11 9 8 7 5 5 5 4 4 3 4 5 6 8 9 11 13 14 14 15 16 16 17 17 17 18 18 18 18 19 19 19 18 18 18 18 18 18
15 16 17 18 18 17 14 12 10 8 6 4 4 4 4 3 3 3 4 6 8 9 11 12 12 13 14 15 15 16 16 17 17 17 18 18 19 19 18 19 19 19 19 19
14 14 15 17 18 17 16 14 12 10 7 5 4 4 4 4 4 3 3 4 6 7 8 9 10 11 12 13 14 15 15 15 16 16 17 18 19 19 18 19 19 19 20 20
14 13 14 15 16 16 16 16 14 12 9 6 5 5 4 5 5 4 4 4 4 5 6 7 8 9 10 11 12 13 13 14 14 15 16 16 17 18 18 18 18 18 19 19
15 14 13 13 14 15 15 15 15 14 11 9 6 5 6 6 5 5 5 5 4 4 4 5 6 7 8 9 10 11 11 12 13 13 14 15 15 16 17 17 17 17 17 17
18 16 14 13 13 13 14 14 15 14 13 11 9 6 6 6 6 6 6 6 5 5 4 4 5 6 6 7 8 9 9 10 11 12 12 13 14 14 15 15 16 16 16 16
21 19 17 15 14 14 13 13 14 14 13 12 10 9 7 6 6 7 7 7 7 6 6 5 5 5 5 6 6 7 7 8 9 10 11 11 12 13 14 14 14 15 15 15
23 22 20 18 17 15 14 14 13 13 13 12 12 10 9 7 7 7 8 9 9 8 7 7 6 5 5 5 5 6 6 7 7 8 9 10 11 11 12 13 13 14 14 14
26 25 23 22 20 18 17 15 15 14 13 13 12 11 10 9 8 7 7 9 9 9 9 9 8 7 6 6 5 5 5 5 6 7 7 8 9 10 11 12 12 13 13 13
29 28 27 25 24 22 20 18 17 16 14 14 13 12 11 10 9 8 8 9 9 10 10 10 10 9 9 7 7 6 6 6 6 6 6 7 8 9 9 10 11 12 12 12
33 32 30 29 28 26 24 22 21 19 17 16 15 14 13 12 11 10 10 9 9 10 11 11 12 11 11 10 9 8 8 7 7 6 6 7 7 8 8 9 9 10 11 12
37 35 34 33 32 30 28 27 25 23 21 19 18 16 15 14 13 12 11 10 10 10 11 12 12 12 12 12 12 11 10 10 9 8 8 7 7 7 8 8 8 9 10 10

GEFSNGP_500_meanwind_042.txt.gz
Wind_Speed
25 25 24 23 22 19 17 16 15 14 13 13 13 13 13 13 13 12 11 10 9 10 9 8 6 5 4 3 2 1 2 3 4 6 7 8 10 11 13 14 15 16 17 18
24 23 22 22 21 20 18 17 17 17 16 16 15 15 15 16 16 15 14 13 12 12 11 9 8 7 6 5 3 3 4 5 7 8 9 10 11 13 14 15 16 17 18 19
23 21 21 21 20 18 16 16 15 15 15 15 15 16 17 17 16 16 15 14 13 13 12 11 9 8 7 7 6 6 6 7 8 10 11 12 14 14 15 16 17 18 19 20
22 20 20 19 19 18 16 15 15 15 14 15 16 16 16 16 16 15 15 15 14 13 12 11 10 9 8 8 7 8 8 9 10 12 13 14 15 16 17 17 18 19 20 21
21 20 18 17 17 16 16 15 15 15 14 15 15 15 15 15 15 15 15 14 13 13 12 11 11 11 10 10 10 10 10 11 12 13 14 15 16 17 18 18 19 20 21 22
20 19 18 16 15 15 14 15 14 14 14 14 14 15 14 14 14 14 14 14 13 13 13 12 12 12 12 11 11 11 12 12 13 13 14 14 15 15 16 17 18 20 21 22
20 19 17 15 14 13 13 13 12 11 11 12 13 13 13 13 13 13 14 14 14 14 14 13 13 13 13 12 12 12 12 12 12 12 13 13 13 14 15 16 16 17 18 19
20 19 17 14 13 12 11 11 11 10 10 10 10 11 11 11 12 13 14 14 15 15 14 15 15 14 14 13 13 13 13 12 12 12 12 12 12 13 13 13 14 15 15 15
20 19 18 16 12 11 10 10 10 9 9 9 9 9 10 11 12 13 14 15 15 15 16 16 16 15 15 15 15 14 14 14 13 13 12 12 12 11 11 11 11 11 11 11
20 19 18 17 14 11 9 9 8 8 8 7 7 8 8 9 11 12 13 14 15 16 16 17 17 16 16 16 16 16 16 15 15 14 13 13 13 12 11 11 10 10 10 9
19 19 19 18 15 12 10 9 8 7 7 7 7 7 7 8 10 11 13 14 15 16 16 17 17 17 17 17 17 17 17 17 16 16 15 15 14 13 13 12 11 10 10 9
18 19 19 18 16 13 11 10 9 7 5 6 6 6 6 7 9 10 12 13 14 15 16 16 17 17 18 17 17 17 17 17 17 17 16 16 15 15 14 14 13 12 11 11
15 17 19 18 16 14 12 11 9 8 6 4 5 5 4 5 7 9 10 12 13 14 15 16 16 17 17 18 18 18 17 17 17 17 17 17 16 16 16 15 15 14 13 13
13 14 16 18 16 15 14 13 10 8 6 5 4 4 4 4 5 7 9 10 11 13 14 14 15 16 16 17 17 17 18 18 18 18 18 18 18 17 17 17 17 16 16 16
11 12 14 15 15 14 14 14 11 8 6 5 4 4 3 3 4 5 7 8 9 11 12 13 13 14 15 15 16 16 17 17 17 18 18 18 18 18 18 18 18 18 17 18
10 10 11 12 13 14 13 13 12 10 8 5 4 4 4 4 4 4 5 6 7 9 10 11 11 12 13 14 14 15 15 16 16 17 17 17 18 18 18 18 18 18 17 17
11 10 10 10 11 12 13 13 11 10 9 7 5 4 4 4 4 4 4 5 6 7 8 9 10 10 11 12 13 13 14 15 15 15 16 16 16 17 17 17 18 18 18 18
13 12 11 10 10 10 10 11 12 10 9 9 7 5 4 5 5 5 5 5 6 6 7 8 8 9 10 10 11 12 12 13 14 14 14 15 16 16 16 16 16 16 16 17
14 13 12 11 10 9 9 10 10 11 10 8 8 6 6 6 6 6 6 6 6 6 7 7 8 8 8 9 9 10 11 12 12 13 13 14 14 15 15 15 15 15 15 15
17 16 15 14 13 11 10 9 9 10 10 9 8 7 6 6 6 6 6 7 6 7 7 7 7 8 8 8 8 9 9 10 10 11 12 12 13 13 14 14 15 14 14 14
19 18 17 16 15 14 13 11 10 9 9 9 8 7 7 6 6 6 7 7 7 8 8 7 7 7 7 7 7 7 8 8 9 9 10 11 11 12 12 13 13 13 14 14
22 21 19 19 18 17 16 14 13 11 10 9 8 8 7 7 7 7 7 7 8 9 9 9 8 8 8 7 7 7 7 7 8 8 9 9 10 10 11 11 12 12 12 12
25 24 22 21 20 20 19 18 17 15 13 12 10 9 8 8 8 8 8 8 9 10 10 10 9 9 9 8 7 7 7 7 7 7 8 8 9 9 10 10 11 11 11 11
29 27 26 24 23 23 22 21 20 19 17 16 14 12 11 10 9 9 9 9 9 9 10 10 10 10 10 10 9 9 8 7 7 7 7 8 8 8 9 9 10 10 10 10
34 32 30 28 27 26 25 25 24 23 21 20 18 16 14 13 12 11 10 10 9 9 10 11 11 11 11 11 11 10 10 9 9 8 8 8 8 8 8 9 9 9 9 9
38 36 35 33 32 30 29 28 28 27 25 24 22 21 19 17 15 14 13 12 11 11 10 11 12 12 12 12 12 12 12 11 11 10 9 9 9 9 9 8 9 8 8 8
43 41 39 38 36 35 34 33 32 31 30 28 27 25 24 22 20 18 17 15 14 14 13 12 12 12 13 13 13 13 13 13 13 12 12 11 10 10 10 9 9 9 8 8

GEFSNGP_500_meanwind_048.txt.gz
Wind_Speed
19 19 19 19 19 19 18 18 18 18 17 18 17 17 17 18 18 18 17 17 17 15 13 12 11 10 9 8 7 7 6 5 4 3 3 3 4 5 6 7 8 10 12 13
18 18 19 19 19 19 18 17 17 17 17 17 18 18 19 20 20 20 20 19 18 17 16 14 13 12 11 10 8 7 7 6 6 6 6 7 7 8 9 10 11 12 14 15
20 18 18 19 19 18 17 17 16 16 16 16 17 18 19 20 20 20 20 20 20 18 18 16 16 14 13 12 10 9 9 8 8 8 8 9 10 11 11 12 13 14 15 16
21 19 19 18 17 16 16 15 15 15 15 15 16 17 17 19 19 20 19 19 19 18 17 17 16 15 14 13 12 11 11 10 10 10 10 10 11 11 12 13 13 14 15 15
22 20 19 17 16 15 15 14 14 14 14 14 15 15 17 18 19 19 19 19 18 18 17 17 17 16 15 14 14 14 13 12 12 11 11 11 11 11 12 12 13 13 14 15
22 21 19 18 16 15 14 14 14 14 14 14 14 15 17 17 18 18 18 18 18 18 18 17 17 17 16 16 15 15 15 14 14 14 13 13 12 12 12 12 13 13 13 13
22 21 19 17 17 15 14 14 13 13 13 13 13 15 15 16 17 17 18 18 18 18 18 18 18 18 17 17 17 17 17 16 16 15 15 14 13 13 13 13 12 12 12 12
20 21 19 17 16 15 14 13 13 12 12 12 12 13 14 15 15 16 17 17 18 18 18 18 18 18 18 19 19 19 18 18 18 17 16 16 15 14 14 14 13 13 12 12
20 20 19 18 16 15 14 13 12 11 11 11 11 12 13 14 14 15 16 16 17 18 18 19 19 19 20 20 20 20 20 20 19 19 18 17 17 16 16 16 15 14 14 13
17 18 18 18 17 15 14 13 12 10 10 10 10 10 11 12 13 14 15 16 17 17 18 19 19 20 19 20 20 20 21 21 21 20 19 19 18 17 17 17 16 16 15 15
15 16 17 17 17 16 15 13 12 10 9 9 9 9 9 11 11 12 13 14 15 16 17 18 18 19 20 20 20 20 20 20 21 21 20 19 19 19 18 18 18 17 17 16
13 14 15 15 15 16 15 14 12 11 9 8 8 8 8 9 10 11 11 12 13 15 15 16 17 18 19 20 20 20 20 21 21 21 20 20 20 19 19 19 19 18 18 18
12 12 13 13 14 15 15 14 13 12 10 8 7 7 7 7 8 9 10 10 12 13 14 14 15 17 18 18 19 20 20 20 21 21 21 20 20 20 19 19 19 19 19 19
11 11 11 11 12 13 14 13 13 12 11 10 7 6 6 6 6 7 7 8 10 11 12 13 13 15 16 17 18 19 19 19 20 20 20 20 20 20 20 20 20 19 19 19
12 12 11 11 10 11 12 12 12 12 11 10 9 7 6 6 6 6 6 6 8 9 10 11 12 13 14 15 16 17 18 18 18 19 19 20 20 20 20 19 19 19 19 19
13 13 12 11 11 10 10 11 11 10 10 10 9 8 7 6 6 6 6 6 6 7 8 10 11 12 13 14 15 16 17 17 17 18 18 18 19 19 19 19 19 18 19 19
15 14 13 13 12 11 10 10 10 10 10 9 9 8 7 7 7 6 6 6 6 6 7 8 9 10 11 12 13 14 15 16 16 17 17 17 18 18 18 18 18 18 17 18
16 16 15 15 13 12 11 11 10 10 10 9 9 9 8 8 8 7 7 7 7 6 7 7 8 9 9 10 11 12 13 14 14 15 16 16 17 17 18 17 17 17 17 16
19 18 17 17 16 15 14 13 12 11 11 10 10 9 9 8 8 8 7 8 8 7 7 7 7 8 8 9 9 10 11 12 13 13 14 15 15 16 16 16 16 16 16 16
22 21 20 19 18 17 16 16 15 14 13 12 11 10 10 9 9 8 8 8 8 8 8 8 8 8 8 8 8 8 9 10 11 12 13 13 14 14 14 14 15 14 14 14
26 25 24 22 21 20 19 18 17 16 15 14 13 12 11 10 10 9 9 9 9 9 9 9 9 9 9 8 8 8 8 8 9 10 11 11 12 13 13 13 13 13 13 13
30 29 27 26 25 23 22 21 20 20 19 18 16 15 14 13 12 11 10 10 10 10 10 10 10 10 10 9 9 8 8 8 8 8 9 9 10 11 12 12 12 12 12 11
35 33 32 30 29 27 26 25 24 23 22 21 20 19 18 16 15 14 13 12 11 11 11 11 11 12 11 11 10 10 9 9 9 8 8 8 8 9 10 10 10 10 10 10
40 38 36 35 33 32 30 29 28 26 25 25 24 23 22 20 19 18 16 15 14 13 12 12 12 12 13 13 12 12 11 10 10 10 9 9 8 8 8 9 9 9 9 9
45 43 41 39 38 36 35 34 32 30 29 29 28 27 26 25 23 22 20 19 18 16 15 14 14 13 13 14 14 14 13 12 12 11 11 10 10 9 8 8 8 8 8 8
49 47 46 44 43 41 39 38 36 35 34 33 32 31 30 29 28 26 25 23 22 21 19 18 16 15 15 14 14 15 15 15 14 13 13 12 12 11 11 10 9 9 9 8
52 51 50 48 47 45 43 42 40 39 38 37 36 35 34 33 32 31 30 28 27 26 24 23 21 19 18 17 16 16 16 16 16 16 15 14 14 13 13 12 12 11 10 10

GEFSNGP_500_meanwind_054.txt.gz
Wind_Speed
18 17 16 17 17 17 17 17 17 18 18 18 18 18 18 19 19 19 18 17 16 15 15 15 14 13 12 11 9 9 8 8 8 7 6 5 4 3 4 5 6 8 9 10
18 17 16 16 17 17 17 16 17 17 18 18 18 18 18 18 19 19 19 18 18 17 17 16 15 15 14 13 12 11 9 8 8 7 6 5 5 5 5 6 7 8 9 10
18 17 17 17 17 17 17 16 16 16 16 17 18 18 18 18 18 19 18 19 19 18 18 18 17 17 16 15 14 13 12 11 10 9 7 7 7 7 6 6 7 9 10 11
18 18 18 18 17 17 17 16 15 15 15 16 16 17 17 18 19 19 19 19 18 18 18 18 17 17 16 16 16 15 15 14 13 12 11 9 8 8 8 8 8 9 10 11
18 19 19 18 17 16 16 15 15 14 15 15 15 16 17 18 19 19 20 19 19 19 19 19 19 19 18 18 17 17 16 16 15 14 13 12 10 10 9 9 10 10 11 11
18 18 18 18 17 15 15 15 14 14 14 14 15 16 17 17 18 19 20 20 20 20 20 20 20 20 20 19 19 18 18 17 16 16 15 14 13 12 11 11 11 11 11 12
16 17 18 18 17 16 15 14 13 14 14 14 15 16 16 17 18 19 19 20 20 21 21 21 20 20 20 20 20 20 19 18 18 17 16 16 15 14 13 12 12 12 12 12
15 16 16 17 17 16 15 14 13 13 13 14 14 15 15 16 17 18 18 19 19 20 20 20 20 20 20 20 20 20 20 19 18 18 18 17 17 16 15 14 14 13 13 12
13 15 15 16 16 16 16 14 12 12 12 13 13 13 14 14 15 15 16 17 18 18 18 19 19 20 20 20 20 20 20 19 19 19 19 19 18 18 17 16 16 15 14 13
11 12 13 14 15 15 15 15 13 12 11 11 11 12 12 12 13 13 14 15 15 16 16 17 18 19 19 20 20 21 20 20 20 19 19 19 19 19 18 18 17 17 16 15
10 10 11 12 12 13 14 14 13 12 11 10 9 10 10 10 11 11 12 13 13 14 15 16 16 17 18 19 19 20 20 20 20 21 20 20 19 19 19 18 18 18 18 17
9 9 9 9 10 11 12 12 13 12 11 10 9 8 9 9 9 9 10 11 12 12 13 14 15 16 16 17 18 19 19 20 20 20 21 21 20 20 19 19 18 18 18 18
8 8 8 8 9 9 10 10 10 11 11 10 9 8 8 8 8 8 9 9 10 11 11 12 13 14 15 16 17 17 18 19 19 20 20 20 20 20 20 19 19 19 19 19
8 8 8 8 8 8 8 9 9 9 9 9 9 8 8 8 8 8 8 8 9 10 11 11 12 13 14 15 15 16 17 17 18 19 19 19 20 20 20 19 19 19 19 19
9 9 9 8 8 8 8 8 8 8 8 8 8 8 8 8 8 8 8 9 9 9 10 10 11 11 12 13 13 14 15 16 16 17 18 19 19 19 19 19 19 19 19 18
11 11 10 10 9 9 9 8 8 8 8 8 8 8 8 8 8 8 8 8 9 9 10 10 10 11 11 11 11 12 13 14 15 16 17 17 18 18 18 18 18 18 18 18
14 13 12 11 11 10 10 10 9 9 9 9 8 8 8 8 9 9 9 9 9 9 9 9 9 10 10 10 10 11 11 12 13 14 15 15 16 17 17 17 17 17 17 17
17 16 15 14 13 12 12 11 11 11 11 11 10 10 10 9 9 10 10 10 10 10 10 10 9 9 10 10 10 10 10 10 11 12 13 13 14 14 15 15 15 16 16 16
20 19 18 17 16 15 14 14 14 13 13 13 13 12 11 11 11 11 11 11 10 10 10 10 10 10 10 9 9 9 9 9 10 10 11 11 12 13 13 14 14 14 14 14
24 23 21 20 19 18 18 17 16 16 16 15 15 14 14 13 13 13 12 12 11 11 11 11 11 11 10 10 9 9 9 9 9 9 9 9 10 11 12 12 12 12 12 12
28 27 26 24 23 22 21 21 20 20 19 18 18 17 17 16 16 15 15 14 13 13 13 13 12 12 12 11 10 10 10 9 9 9 9 8 9 9 10 10 11 11 11 11
33 32 31 29 28 27 26 25 24 23 23 22 21 21 20 20 19 19 18 18 17 16 15 14 14 13 13 13 12 12 11 10 10 10 9 9 9 8 8 9 9 9 9 9
38 37 36 35 34 32 30 29 28 28 27 26 25 25 24 23 23 22 21 21 20 19 19 18 17 16 15 14 14 13 13 12 12 11 11 10 10 10 9 9 9 9 9 9
44 43 42 41 39 38 36 35 34 33 32 31 30 29 28 27 27 26 25 25 24 23 22 21 20 19 18 17 16 16 15 14 14 14 13 12 12 12 11 11 10 10 9 9
49 49 48 47 45 44 42 41 40 38 37 36 35 34 33 32 31 30 29 28 27 26 25 25 24 23 22 21 19 19 18 17 16 16 16 15 14 14 13 13 12 12 11 11
52 52 51 50 49 48 47 46 45 43 42 41 40 39 38 37 35 34 33 32 31 30 30 28 27 27 26 25 24 22 21 20 19 18 17 17 17 17 16 16 15 14 14 14
55 55 54 53 52 51 51 50 48 47 46 45 44 43 42 41 40 39 38 37 36 35 34 33 32 30 29 29 28 27 26 25 23 22 21 20 19 19 19 19 18 18 17 16

GEFSNGP_500_meanwind_060.txt.gz
Wind_Speed
16 16 15 15 15 14 14 15 15 15 16 16 17 18 19 20 20 20 20 20 20 20 20 20 20 20 19 18 17 17 15 15 14 12 11 11 10 8 6 4 4 4 5 6
16 16 16 16 15 14 14 15 15 15 15 16 17 18 19 20 20 20 21 21 22 21 21 21 21 20 20 19 19 18 17 17 16 14 13 13 13 12 11 9 8 6 6 6
16 17 16 16 16 14 14 14 14 15 15 15 17 18 18 19 20 20 20 21 22 22 22 22 21 21 21 20 19 19 19 19 18 17 15 15 14 13 12 11 11 9 8 7
16 16 16 16 16 15 14 14 14 14 14 15 16 17 18 19 19 20 21 21 22 23 23 23 23 22 21 21 20 20 20 20 19 18 17 16 15 14 13 12 12 11 10 10
15 16 16 16 15 15 14 13 13 14 14 14 15 16 17 18 19 19 20 21 22 22 23 23 23 23 23 22 21 20 20 20 20 19 19 17 16 15 14 14 13 13 12 11
14 14 15 15 15 15 14 13 13 13 14 14 14 15 16 16 17 18 18 19 20 21 22 22 23 23 23 22 22 21 21 20 20 20 19 19 18 17 16 15 15 14 13 12
12 13 13 13 14 14 14 13 12 12 12 13 13 14 14 15 15 16 17 18 19 20 21 21 22 22 23 23 22 22 22 21 21 20 20 20 19 19 18 17 16 15 14 13
10 11 12 12 12 12 13 13 12 11 10 11 11 12 12 13 14 15 15 16 17 18 19 20 21 22 22 23 23 23 22 22 21 21 21 20 20 20 19 18 18 17 16 14
8 9 10 11 11 11 11 11 11 10 10 9 9 10 11 12 12 13 14 15 16 17 18 19 20 20 21 22 23 23 23 22 22 22 21 21 20 20 20 20 19 18 17 16
7 8 8 9 9 10 10 9 9 9 9 9 9 9 10 10 11 11 13 14 15 16 17 18 18 19 20 20 21 22 22 23 22 22 22 22 21 21 20 20 20 19 19 18
7 7 8 8 8 8 8 8 8 7 7 7 7 8 8 9 10 10 11 12 13 14 15 16 17 18 19 19 20 20 21 22 22 22 22 22 22 21 21 20 20 20 19 19
8 8 8 8 8 8 8 7 7 7 7 7 7 7 8 8 9 10 11 11 12 13 14 15 16 16 17 18 18 19 20 21 21 22 22 22 22 21 21 21 20 19 19 19
9 9 8 8 8 8 8 8 7 7 7 7 7 7 7 8 8 9 10 11 12 12 13 13 14 15 16 16 17 18 18 19 20 20 21 21 21 21 21 21 20 20 19 18
11 11 10 10 9 9 9 8 8 8 7 7 7 8 8 8 8 9 9 10 11 11 12 13 13 14 14 15 15 16 17 18 18 19 20 20 20 20 20 20 20 19 19 19
14 13 12 12 11 11 11 10 10 9 9 8 8 8 8 8 9 9 9 9 10 11 11 12 12 13 13 14 14 15 16 16 17 17 18 18 19 19 19 19 19 19 18 18
18 17 15 14 14 13 13 12 12 11 11 10 10 9 9 9 9 9 10 10 10 10 11 11 11 11 12 13 13 14 14 15 15 16 16 17 17 18 18 18 18 17 17 17
21 20 19 18 17 16 15 15 14 13 13 12 12 11 11 11 11 10 10 10 10 10 11 11 11 11 11 12 12 13 13 13 14 14 14 15 15 16 16 16 17 16 16 16
25 23 22 21 20 19 18 17 17 16 15 15 14 14 13 13 12 12 12 12 11 11 11 11 11 11 11 12 12 12 12 12 13 13 13 13 13 14 14 15 15 15 15 15
29 27 26 25 24 23 22 21 20 19 18 18 17 16 16 15 15 14 14 14 13 13 13 12 12 12 12 12 12 12 13 12 12 12 12 12 12 12 12 13 13 13 13 13
32 31 30 29 27 26 26 25 24 22 22 21 20 19 19 18 17 17 16 16 16 15 15 14 14 14 13 13 13 13 13 13 13 12 12 12 11 11 11 11 11 11 11 12
37 36 34 33 32 31 30 29 28 27 25 24 24 23 22 22 21 20 20 19 18 18 18 17 17 16 16 15 15 15 14 14 14 13 13 12 12 11 11 10 10 10 10 10
41 40 39 38 37 36 34 33 32 31 30 29 28 27 26 25 24 24 23 22 22 21 21 20 20 19 19 18 17 17 16 16 15 15 14 14 13 13 12 11 11 10 10 9
45 44 43 42 42 41 39 38 37 36 35 33 32 31 30 30 29 28 27 26 26 25 24 23 23 22 22 21 21 20 19 18 18 17 16 16 15 15 14 14 13 12 11 11
50 49 49 48 47 46 45 43 42 41 40 39 37 36 35 34 34 33 32 31 30 29 28 28 26 26 25 24 23 23 22 22 21 20 19 19 18 17 16 16 15 15 14 13
55 54 53 53 52 51 50 49 48 46 45 44 43 42 41 40 39 38 37 36 35 34 33 32 31 30 29 28 27 26 26 25 24 23 23 22 21 21 20 19 18 18 17 16
58 58 58 57 56 56 55 54 53 52 50 49 48 47 46 45 44 43 42 41 40 38 37 37 35 34 33 32 31 30 29 28 28 27 26 26 25 25 24 23 22 21 20 20
62 62 61 61 61 60 59 59 58 57 55 54 53 52 51 50 49 48 46 45 44 43 42 41 40 38 37 36 35 34 33 32 31 31 30 29 29 28 28 27 26 25 24 23

GEFSNGP_500_meanwind_066.txt.gz
Wind_Speed
13 13 13 13 12 12 12 12 12 13 13 14 15 16 17 18 19 20 21 21 21 22 22 21 21 21 21 20 19 19 18 17 16 15 14 12 10 8 5 3 2 3 5 6
13 13 13 13 12 12 12 12 12 13 13 14 15 15 16 17 19 20 21 21 21 22 22 22 22 22 22 21 20 19 18 18 17 16 15 14 12 10 8 7 5 4 4 4
13 13 13 13 13 12 12 12 12 12 13 13 14 15 15 16 18 19 20 20 21 22 22 22 22 22 21 21 21 20 19 18 17 17 16 15 14 13 12 10 9 8 6 5
12 12 13 13 13 13 12 12 12 12 13 13 13 14 15 16 17 18 19 20 20 21 21 21 22 22 21 21 20 20 20 19 18 17 17 16 15 14 14 12 11 10 8 7
11 11 12 12 12 12 12 11 11 11 12 12 12 13 14 14 15 16 17 18 19 20 20 21 21 21 21 21 21 21 20 20 19 18 17 17 16 15 15 14 13 11 10 9
8 10 10 11 11 11 11 11 10 10 10 11 12 12 13 13 14 15 16 17 17 18 19 20 20 21 21 21 21 21 21 20 20 19 19 18 17 17 16 15 14 13 12 11
6 7 8 9 9 9 9 9 9 9 9 10 11 12 12 13 14 14 15 16 17 17 18 19 19 20 20 21 22 22 21 21 20 20 19 19 18 17 17 16 15 14 13 13
4 5 6 7 7 7 7 8 8 8 8 9 10 11 11 12 12 13 14 15 16 17 17 18 18 19 19 20 21 21 21 21 21 20 20 20 19 18 17 17 16 15 15 14
3 4 4 5 6 6 6 6 7 7 8 8 8 9 10 11 12 12 13 14 15 16 16 17 17 18 18 19 20 20 20 21 21 21 20 20 20 19 18 17 17 16 16 15
5 4 4 5 5 6 6 6 6 7 7 7 8 8 9 9 10 11 12 12 13 14 15 16 16 17 17 18 19 19 20 20 20 20 20 20 20 19 19 18 18 17 17 16
7 7 6 6 6 6 6 6 6 7 7 7 8 8 8 9 9 10 11 11 12 13 13 14 15 15 16 17 18 18 19 19 20 20 20 20 20 19 19 19 18 18 17 17
10 10 9 8 8 7 7 7 7 7 7 7 8 8 8 9 9 9 10 10 11 11 12 13 14 14 14 15 16 17 18 18 18 19 19 19 19 19 18 18 18 18 18 17
14 13 12 11 10 10 9 8 8 8 8 8 8 8 8 8 9 9 9 9 10 10 11 11 12 13 13 14 14 15 16 16 17 17 18 19 19 19 18 18 17 17 17 17
18 16 15 14 13 12 12 11 10 10 9 9 8 8 8 8 8 9 9 9 10 10 10 10 11 11 12 13 13 14 14 15 15 15 16 17 17 18 18 17 17 17 17 16
21 20 18 17 16 16 15 14 13 12 11 11 10 9 9 9 9 9 9 9 9 9 10 10 10 10 11 11 12 13 13 13 14 14 14 15 15 16 16 16 16 16 16 16
24 23 22 21 20 19 18 17 16 15 14 13 12 12 11 10 10 10 10 10 9 9 9 10 10 10 10 10 11 11 12 12 13 13 13 13 13 13 14 14 15 15 15 15
28 26 26 24 23 22 21 20 19 18 17 16 15 14 13 13 12 11 11 11 11 10 10 10 10 10 10 10 10 10 11 11 11 12 12 12 12 12 12 12 13 13 13 13
32 31 29 28 26 25 24 23 22 21 20 19 18 17 16 15 15 14 13 13 12 12 11 11 11 11 10 10 10 10 10 10 10 11 11 11 11 11 11 11 10 11 11 11
36 34 33 32 30 29 28 26 25 24 23 22 21 20 19 18 17 16 16 15 14 14 13 13 12 12 11 11 11 11 11 11 10 10 10 10 10 10 10 10 10 9 9 9
40 39 37 36 34 33 31 30 29 28 27 26 24 23 22 21 20 19 18 18 17 16 16 15 14 14 13 13 13 12 12 12 11 11 11 11 10 10 10 10 9 9 8 8
45 43 42 40 38 37 36 34 33 32 31 29 28 27 26 25 24 23 21 20 20 19 18 18 17 16 15 15 15 14 14 14 13 13 12 12 12 11 11 10 10 10 9 9
49 48 46 45 43 42 40 39 38 36 35 34 33 32 30 29 28 27 26 24 23 22 21 21 20 19 19 18 17 17 17 16 16 15 15 14 14 13 13 12 12 11 11 11
53 52 51 49 48 47 45 44 42 41 40 39 38 36 35 34 32 31 30 29 27 26 25 25 24 23 22 21 20 20 19 19 19 18 18 17 17 16 16 15 15 14 14 13
57 56 55 54 53 51 50 48 47 46 45 44 43 42 40 38 37 36 35 34 32 31 30 29 28 27 26 25 24 24 23 23 22 22 21 21 20 20 19 19 18 18 17 17
61 60 59 58 57 56 55 54 52 51 50 49 48 46 45 44 42 41 40 38 37 36 35 34 33 31 30 30 29 28 27 27 26 26 25 25 24 24 23 22 22 21 21 20
64 64 63 62 62 61 60 59 58 56 55 54 53 51 50 49 47 46 45 43 42 41 40 39 38 36 35 34 34 33 32 31 31 30 30 29 29 28 27 27 26 25 25 24
65 66 66 66 66 65 64 63 62 61 60 59 58 57 56 54 53 52 50 49 47 46 45 44 43 42 41 40 39 38 37 36 35 35 34 33 33 32 32 31 30 30 29 29

GEFSNGP_500_meanwind_072.txt.gz
Wind_Speed
7 8 9 9 9 9 9 10 11 11 12 13 14 15 16 18 19 20 20 21 22 22 22 22 23 23 23 23 23 23 22 21 20 18 18 17 15 14 12 11 9 8 7 6
7 7 8 9 9 10 10 10 11 11 12 13 14 15 16 17 18 19 20 20 21 22 22 23 23 23 23 23 23 22 22 22 21 20 19 18 18 16 14 13 12 10 9 7
6 7 8 9 10 10 10 10 11 11 12 13 13 14 15 16 17 19 20 20 20 21 21 22 23 23 23 23 23 23 22 22 22 21 21 20 19 18 17 16 14 12 11 10
6 6 7 8 9 9 10 10 11 11 11 12 13 14 15 16 17 18 19 19 20 20 21 21 22 23 23 23 23 23 23 23 22 22 21 21 21 19 18 17 16 14 13 11
4 5 6 7 7 7 8 9 10 10 11 11 12 13 14 15 16 17 19 19 19 20 20 21 22 22 23 23 23 23 23 23 23 22 22 22 22 21 19 18 17 17 15 14
4 4 5 5 5 6 7 7 8 9 10 11 11 12 13 14 15 16 17 18 18 19 19 20 21 22 22 23 23 23 23 23 23 23 23 23 23 22 21 20 19 18 17 16
5 5 5 5 5 6 6 7 7 8 9 10 11 11 12 13 14 15 16 17 17 18 19 19 20 21 21 22 23 23 23 24 23 23 23 23 23 23 22 21 20 19 18 18
8 7 6 7 7 7 7 7 7 8 9 9 10 11 11 12 13 14 15 15 16 17 17 18 19 19 20 21 22 22 22 23 23 23 23 23 22 22 22 22 21 20 19 18
9 9 8 8 8 8 8 8 8 9 9 10 10 10 11 11 12 12 13 14 14 15 16 17 17 18 19 20 20 21 21 22 22 22 22 22 22 22 22 21 21 20 19 19
12 12 11 11 10 10 10 10 9 9 9 10 10 10 11 11 11 11 12 12 13 14 14 15 16 17 17 18 19 19 20 20 20 21 21 21 22 21 21 21 21 21 19 19
15 15 14 14 13 12 12 12 11 11 10 10 10 10 10 11 11 11 11 11 12 12 13 13 14 15 16 16 17 17 18 18 19 19 20 20 21 21 21 21 21 21 20 20
19 18 18 17 16 16 15 14 14 13 12 12 11 11 11 11 11 11 11 11 11 11 12 12 12 13 14 14 15 15 16 17 17 18 18 18 19 20 20 20 20 20 20 20
23 22 21 20 20 19 18 17 17 16 15 14 13 13 12 12 12 11 11 11 11 11 11 11 11 12 12 13 13 14 14 15 15 16 16 16 17 18 18 19 19 19 19 19
26 26 25 24 23 22 22 21 20 19 18 17 16 15 15 14 13 13 12 12 12 11 11 11 11 11 11 11 12 12 13 13 14 14 15 15 15 15 16 16 17 17 17 18
30 29 28 27 27 26 25 24 23 22 21 20 19 18 17 16 16 15 14 14 13 13 12 12 11 11 11 11 11 11 11 12 12 12 13 13 14 14 14 14 15 15 16 16
34 33 32 31 30 30 29 28 27 26 25 23 22 21 20 19 18 17 17 16 15 14 14 13 13 12 12 11 11 11 11 11 11 11 11 12 12 12 13 13 13 13 13 14
39 37 37 36 35 34 33 31 30 29 28 27 26 25 23 22 21 20 19 18 18 17 16 15 14 14 13 12 12 11 11 11 11 11 11 11 11 11 11 11 11 11 11 12
43 42 41 40 39 38 37 36 34 33 32 31 30 28 26 25 24 23 22 21 20 19 19 18 17 16 15 14 14 13 12 12 12 12 11 11 11 11 11 11 10 10 10 10
46 46 45 44 44 43 41 40 39 38 36 35 34 32 31 29 28 27 26 24 23 22 21 20 19 18 17 17 16 15 15 14 13 13 13 12 12 12 11 11 11 10 10 10
50 50 50 49 48 47 46 44 43 42 41 40 38 37 35 33 32 31 29 27 26 26 25 23 22 21 20 20 19 18 17 17 16 15 15 14 14 14 13 13 12 12 11 11
53 53 53 53 52 51 50 49 48 46 45 44 43 41 39 38 37 35 33 31 30 29 28 27 26 25 24 23 22 21 20 20 19 18 17 17 16 16 15 15 15 14 13 13
56 56 56 56 56 55 55 54 53 51 50 49 47 46 44 43 41 40 38 36 35 34 32 31 30 29 28 27 26 25 24 23 23 22 21 20 20 19 18 18 17 17 17 16
59 59 59 59 59 58 58 58 57 56 55 53 52 50 49 48 47 45 43 41 40 38 37 35 34 33 32 31 29 29 28 27 26 25 25 24 23 23 22 21 21 20 20 20
62 62 62 61 61 61 61 61 60 59 58 57 56 55 54 53 52 50 48 47 45 43 42 40 39 38 37 35 34 33 32 31 30 29 28 28 27 26 25 25 24 24 23 23
63 62 62 62 62 62 63 64 64 63 62 61 60 60 59 58 57 55 54 52 50 48 47 46 44 43 42 40 39 38 37 36 35 34 33 32 31 30 29 29 28 27 27 26
64 64 64 63 64 63 63 65 66 67 66 65 64 63 63 62 61 60 58 57 55 54 53 51 50 49 47 46 44 43 42 41 40 39 37 36 35 35 34 33 32 31 31 30
64 64 64 63 63 63 64 64 66 67 68 68 68 67 67 66 65 64 63 62 61 59 58 57 55 54 53 51 50 48 47 46 45 43 42 41 40 39 38 38 37 36 35 35